sat.trackr.live / text

‹ back to catalog

STARLINK-3173

NORAD 51111 · 2022-005H

PAYLOAD ACTIVE UNKNOWN

§ Identity

Operator
Country
US
Launch date
2022-01-19
Launch site
AFETR
Launch vehicle
Mass (kg)
RCS (m²)

Purposes: comms

External: N2YO · Heavens-Above · Gunter

§ Orbital elements

Epoch: 2026-05-25T04:25:19.267392Z

Period
95.44 min
Inclination
53.2136°
Eccentricity
0.0002194
Mean motion
15.08835382 rev/d
Perigee alt
538.2 km
Apogee alt
541.3 km
Semi-major
6,917.9 km
B*
1.0080e-5
RAAN
305.7235°
Arg perigee
111.8051°
Mean anomaly
248.3175°
Rev number
24,042

§ Raw data

STARLINK-31731 51111U 22005H   26145.18425078 -.00000128  00000+0  10080-4 0  99952 51111  53.2136 305.7235 0002194 111.8051 248.3175 15.08835382240424

JSON: /api/v1/satellites/51111 · /tle

For live sub-satellite position, see the globe view (requires WebGL).

§ Visibility from observer

Set your observer location to see the next 7 days of passes ≥ 10°. The values pass through the URL so the page stays shareable.

No JS? Fill the form by hand. The geolocation button needs JavaScript.